sat.trackr.live / text

‹ back to catalog

STARLINK-36041

NORAD 66798 · 2025-278H

PAYLOAD ACTIVE UNKNOWN

§ Identity

Operator
Country
US
Launch date
2025-12-01
Launch site
AFETR
Launch vehicle
Mass (kg)
RCS (m²)

Purposes: comms

External: N2YO · Heavens-Above · Gunter

§ Orbital elements

Epoch: 2026-09-20T21:59:21.883200Z

Period
94.27 min
Inclination
43.0039°
Eccentricity
0.0001287
Mean motion
15.27585676 rev/d
Perigee alt
482.1 km
Apogee alt
483.9 km
Semi-major
6,861.2 km
B*
3.9737e-4
RAAN
92.0751°
Arg perigee
289.4049°
Mean anomaly
70.6663°
Rev number
4,506

§ Raw data

STARLINK-360411 66798U 25278H   26263.91622550  .00010690  00000+0  39737-3 0  99962 66798  43.0039  92.0751 0001287 289.4049  70.6663 15.27585676 45060

JSON: /api/v1/satellites/66798 · /tle

For live sub-satellite position, see the globe view (requires WebGL).

§ Visibility from observer

Set your observer location to see the next 7 days of passes ≥ 10°. The values pass through the URL so the page stays shareable.

No JS? Fill the form by hand. The geolocation button needs JavaScript.